Total_Precipitation_Accumulation
0.00 0.00 0.00 0.00 0.00 0.00 0.00 0.00 0.00 0.00 0.00 0.00 0.00 0.00 0.00 0.00 0.00 0.00 0.00 0.00 0.00 0.00 0.00 0.00 0.00 0.00 0.00 0.00 0.00 0.00 0.00 0.00 0.00 0.00 0.00 0.00 0.00 0.00 0.01 0.01 0.05 0.04 0.02
0.00 0.00 0.00 0.00 0.00 0.00 0.00 0.00 0.00 0.00 0.00 0.00 0.00 0.00 0.00 0.00 0.00 0.00 0.00 0.00 0.00 0.00 0.00 0.00 0.00 0.00 0.00 0.00 0.00 0.00 0.00 0.00 0.00 0.00 0.00 0.00 0.00 0.00 0.00 0.00 0.04 0.03 0.00
0.00 0.00 0.00 0.00 0.00 0.00 0.00 0.00 0.00 0.00 0.00 0.00 0.00 0.00 0.00 0.00 0.00 0.00 0.00 0.00 0.00 0.00 0.00 0.00 0.00 0.00 0.00 0.00 0.00 0.00 0.00 0.00 0.00 0.00 0.00 0.01 0.00 0.00 0.00 0.00 0.00 0.00 0.00
0.00 0.00 0.00 0.00 0.00 0.00 0.00 0.00 0.00 0.00 0.00 0.00 0.00 0.00 0.00 0.00 0.00 0.00 0.00 0.00 0.00 0.00 0.00 0.00 0.00 0.00 0.00 0.00 0.00 0.00 0.00 0.00 0.00 0.00 0.01 0.03 0.01 0.00 0.00 0.00 0.00 0.00 0.00
0.00 0.00 0.00 0.00 0.00 0.00 0.00 0.00 0.00 0.00 0.00 0.00 0.00 0.00 0.00 0.00 0.00 0.00 0.00 0.00 0.00 0.00 0.00 0.00 0.00 0.00 0.00 0.00 0.00 0.00 0.00 0.00 0.00 0.00 0.00 0.01 0.02 0.02 0.00 0.00 0.00 0.00 0.00
0.00 0.00 0.00 0.00 0.00 0.00 0.00 0.00 0.00 0.00 0.00 0.00 0.00 0.00 0.00 0.01 0.01 0.00 0.00 0.00 0.00 0.00 0.00 0.00 0.00 0.00 0.00 0.00 0.00 0.00 0.01 0.01 0.00 0.00 0.01 0.01 0.05 0.06 0.03 0.06 0.04 0.02 0.01
0.00 0.00 0.00 0.00 0.00 0.00 0.00 0.00 0.00 0.00 0.00 0.00 0.00 0.00 0.00 0.01 0.01 0.01 0.00 0.00 0.00 0.00 0.00 0.00 0.00 0.00 0.00 0.00 0.00 0.00 0.00 0.01 0.01 0.02 0.04 0.07 0.11 0.10 0.11 0.25 0.27 0.18 0.10
0.00 0.00 0.00 0.00 0.00 0.00 0.00 0.00 0.00 0.00 0.00 0.00 0.00 0.00 0.00 0.00 0.00 0.00 0.00 0.00 0.01 0.02 0.01 0.00 0.00 0.00 0.00 0.00 0.00 0.01 0.01 0.01 0.00 0.00 0.01 0.06 0.12 0.13 0.23 0.43 0.44 0.34 0.26
0.00 0.00 0.00 0.00 0.00 0.00 0.01 0.01 0.00 0.00 0.00 0.00 0.00 0.00 0.00 0.00 0.00 0.00 0.00 0.00 0.01 0.02 0.03 0.02 0.01 0.00 0.00 0.01 0.02 0.02 0.02 0.03 0.01 0.02 0.02 0.02 0.04 0.05 0.18 0.32 0.33 0.29 0.26
0.00 0.00 0.00 0.00 0.00 0.00 0.00 0.01 0.01 0.01 0.01 0.01 0.00 0.00 0.00 0.00 0.01 0.01 0.01 0.02 0.01 0.01 0.02 0.03 0.03 0.03 0.04 0.06 0.07 0.06 0.06 0.04 0.02 0.01 0.02 0.02 0.05 0.09 0.18 0.22 0.22 0.23 0.22
0.00 0.00 0.00 0.00 0.00 0.00 0.00 0.00 0.01 0.01 0.01 0.01 0.01 0.01 0.01 0.01 0.04 0.05 0.09 0.13 0.09 0.05 0.05 0.05 0.07 0.09 0.10 0.06 0.10 0.18 0.13 0.03 0.02 0.01 0.01 0.02 0.08 0.17 0.23 0.21 0.20 0.21 0.22
0.00 0.00 0.00 0.00 0.00 0.00 0.00 0.00 0.00 0.00 0.01 0.01 0.02 0.05 0.05 0.06 0.07 0.04 0.11 0.14 0.10 0.08 0.06 0.08 0.21 0.19 0.10 0.05 0.20 0.48 0.21 0.06 0.04 0.04 0.04 0.05 0.13 0.22 0.30 0.22 0.19 0.22 0.23
0.00 0.00 0.00 0.00 0.01 0.00 0.00 0.00 0.00 0.01 0.02 0.03 0.03 0.04 0.08 0.08 0.06 0.03 0.03 0.05 0.08 0.10 0.11 0.17 0.26 0.13 0.11 0.14 0.18 0.26 0.21 0.12 0.07 0.08 0.12 0.14 0.20 0.30 0.34 0.24 0.20 0.21 0.23
0.00 0.00 0.00 0.00 0.01 0.01 0.01 0.01 0.01 0.02 0.03 0.05 0.09 0.08 0.13 0.10 0.07 0.04 0.04 0.03 0.05 0.09 0.17 0.19 0.18 0.17 0.18 0.15 0.16 0.14 0.17 0.23 0.15 0.16 0.21 0.17 0.13 0.24 0.34 0.26 0.20 0.19 0.20
0.00 0.00 0.00 0.00 0.00 0.01 0.02 0.02 0.01 0.01 0.02 0.03 0.08 0.10 0.13 0.13 0.11 0.11 0.09 0.07 0.07 0.14 0.22 0.26 0.29 0.28 0.23 0.20 0.15 0.11 0.09 0.13 0.17 0.19 0.21 0.13 0.11 0.18 0.23 0.26 0.21 0.17 0.15
0.00 0.00 0.01 0.01 0.02 0.02 0.03 0.03 0.04 0.05 0.06 0.08 0.13 0.21 0.30 0.32 0.31 0.34 0.27 0.23 0.19 0.20 0.24 0.33 0.36 0.40 0.32 0.29 0.16 0.14 0.15 0.15 0.15 0.16 0.12 0.19 0.18 0.11 0.13 0.17 0.20 0.19 0.16
0.01 0.01 0.03 0.04 0.07 0.09 0.10 0.11 0.12 0.16 0.21 0.30 0.41 0.48 0.61 0.69 0.68 0.67 0.52 0.34 0.31 0.43 0.50 0.46 0.40 0.46 0.28 0.25 0.22 0.30 0.31 0.25 0.19 0.17 0.14 0.15 0.16 0.08 0.08 0.10 0.15 0.19 0.20
0.03 0.05 0.09 0.12 0.16 0.21 0.27 0.31 0.35 0.38 0.43 0.50 0.56 0.54 0.59 0.72 0.75 0.75 0.51 0.28 0.37 0.63 0.72 0.66 0.59 0.57 0.43 0.41 0.40 0.45 0.43 0.34 0.23 0.18 0.13 0.11 0.10 0.05 0.09 0.16 0.15 0.16 0.22
0.04 0.10 0.20 0.28 0.33 0.39 0.49 0.58 0.60 0.57 0.54 0.52 0.49 0.41 0.39 0.43 0.47 0.52 0.32 0.26 0.45 0.61 0.65 0.64 0.61 0.68 0.58 0.56 0.61 0.52 0.39 0.27 0.19 0.16 0.12 0.10 0.10 0.07 0.05 0.13 0.10 0.13 0.24
0.07 0.16 0.30 0.37 0.40 0.37 0.34 0.37 0.38 0.39 0.37 0.35 0.29 0.23 0.20 0.20 0.24 0.36 0.30 0.27 0.44 0.54 0.51 0.68 0.74 0.79 0.65 0.59 0.61 0.35 0.21 0.17 0.15 0.11 0.08 0.08 0.06 0.04 0.03 0.04 0.12 0.14 0.24
0.06 0.11 0.15 0.17 0.15 0.11 0.11 0.12 0.14 0.17 0.22 0.24 0.23 0.19 0.15 0.14 0.19 0.33 0.32 0.32 0.39 0.43 0.41 0.56 0.67 0.67 0.50 0.68 0.76 0.34 0.14 0.09 0.08 0.06 0.05 0.03 0.03 0.03 0.04 0.04 0.06 0.11 0.25
0.01 0.02 0.03 0.03 0.03 0.02 0.02 0.04 0.05 0.07 0.10 0.11 0.12 0.13 0.11 0.14 0.18 0.24 0.25 0.26 0.30 0.34 0.34 0.38 0.47 0.51 0.43 0.68 0.77 0.61 0.31 0.14 0.08 0.05 0.06 0.06 0.06 0.07 0.08 0.09 0.09 0.12 0.20
0.01 0.01 0.01 0.01 0.02 0.01 0.01 0.01 0.02 0.03 0.04 0.05 0.05 0.06 0.07 0.11 0.15 0.16 0.17 0.21 0.26 0.28 0.31 0.35 0.47 0.57 0.48 0.53 0.72 0.80 0.55 0.27 0.22 0.16 0.17 0.20 0.20 0.20 0.19 0.18 0.18 0.22 0.27
0.01 0.01 0.01 0.01 0.02 0.02 0.02 0.02 0.03 0.04 0.03 0.03 0.04 0.05 0.06 0.08 0.08 0.09 0.12 0.23 0.30 0.35 0.39 0.39 0.43 0.50 0.51 0.46 0.51 0.61 0.65 0.60 0.50 0.27 0.19 0.20 0.24 0.25 0.24 0.23 0.21 0.24 0.29
0.01 0.01 0.01 0.01 0.03 0.03 0.04 0.05 0.04 0.02 0.02 0.02 0.03 0.05 0.05 0.05 0.05 0.05 0.06 0.11 0.22 0.31 0.35 0.36 0.37 0.42 0.46 0.45 0.43 0.45 0.53 0.59 0.57 0.44 0.25 0.18 0.22 0.22 0.22 0.24 0.22 0.22 0.26
0.01 0.01 0.01 0.02 0.03 0.03 0.04 0.05 0.05 0.04 0.04 0.03 0.04 0.06 0.07 0.06 0.05 0.04 0.05 0.08 0.13 0.15 0.19 0.25 0.28 0.31 0.33 0.36 0.37 0.41 0.44 0.45 0.46 0.51 0.42 0.31 0.26 0.28 0.31 0.33 0.35 0.32 0.30